Regional Weather Roundup
Issued by NWS Cleveland, OH

Home | Current Version | Previous Version | Graphics & Text | Print | Product List | Glossary On
Versions: 1 2 3 4 5 6 7 8 9 10 11 12 13 14 15 16 17 18 19 20 21 22 23 24 25 26 27 28 29 30 31 32 33 34 35 36 37 38 39 40 41 42 43 44 45 46 47 48 49 50
000
ASUS41 KCLE 270900
RWRCLE
OHIO REGIONAL WEATHER ROUNDUP
NATIONAL WEATHER SERVICE WILMINGTON, OH
500 AM EDT WED MAY 27 2015

NOTE: "FAIR" INDICATES FEW OR NO CLOUDS BELOW 12,000 FEET WITH NO
SIGNIFICANT WEATHER AND/OR OBSTRUCTIONS TO VISIBILITY.

OHZ001>008-015>018-024>027-034-035-043-044-271000-
   NORTHWEST OHIO

CITY           SKY/WX    TMP DP  RH WIND       PRES   REMARKS
DEFIANCE       PTCLDY    67  60  78 SW10      29.96S
FINDLAY        CLEAR     67  63  87 S12       29.99R
TOLEDO EXPRESS PTCLDY    66  64  93 S8        29.95S
TOLEDO EXEC    PTCLDY    68  63  84 SW13      29.96S
LIMA           CLEAR     66  63  90 S9        30.01R
$$

OHZ009>014-019>023-028>033-038-089-271000-
   NORTHEAST OHIO

CITY           SKY/WX    TMP DP  RH WIND       PRES   REMARKS
CLE-HOPKINS    CLOUDY    68  64  87 S12       30.02R
CLE-LAKEFRONT  RAIN      70  64  81 S15       29.99R
CUY CO. ARPT   NOT AVBL
LORAIN-ELYRIA  PTCLDY    67  65  93 S10       30.01R
ASHTABULA      CLOUDY    67  64  90 SW10      30.02S
AKRON-CANTON   CLOUDY    67  64  90 SW10      30.05S
WOOSTER        MOCLDY    65  64  97 S6        30.04S
MANSFIELD      MOCLDY    66  64  93 SW15G21   30.04R
YOUNGSTOWN     CLOUDY    66  63  90 SW10      30.04S
$$

OHZ042-051>053-060>062-070>072-077>081-271000-
  SOUTHWEST OHIO

CITY           SKY/WX    TMP DP  RH WIND       PRES   REMARKS
CINC-COVINGTON PTCLDY    66  64  93 S7        30.06R FOG
CINC-LUNKEN    PTCLDY    65  65 100 S6        30.06R
HAMILTON       MOCLDY    69  66  90 SW5       30.06R
DAYTON         NOT AVBL
WRIGHT-PAT AFB MOCLDY    66  66  99 S6        30.04R
DAYTON GENERAL MOCLDY    67  65  93 SW8       30.05R
WILMINGTON     CLOUDY    67  64  90 SW9       30.06R
$$

OHZ036-037-039>041-045>050-054>059-063>069-073>076-082>088-271000-
  CENTRAL AND SOUTHEAST OHIO

CITY           SKY/WX    TMP DP  RH WIND       PRES   REMARKS
COLUMBUS       CLOUDY    67  65  93 S7        30.05S
OSU AIRPORT    PTCLDY    66  63  90 S8        30.05S
BOLTON FIELD   NOT AVBL
RICKENBACK AFB NOT AVBL
NEWARK         CLOUDY    68  64  87 SW5       30.05S
MARION         CLEAR     65  63  93 S10       30.03S
LANCASTER      MOCLDY    68  64  87 S6        30.06S
ZANESVILLE     CLOUDY    66  63  90 S6        30.07S
NEW PHILLY     NOT AVBL
$$



USA.gov is the U.S. government's official web portal to all federal, state and local government web resources and services.